Year,Month,Day,Hour,Minute,Value (Times are PST for temperature in C)
2019,06,30,00,00,14.10
2019,06,30,00,01,14.10
2019,06,30,00,02,14.10
2019,06,30,00,03,14.10
2019,06,30,00,04,14.10
2019,06,30,00,05,14.10
2019,06,30,00,06,14.10
2019,06,30,00,07,14.10
2019,06,30,00,08,14.10
2019,06,30,00,09,14.10
2019,06,30,00,10,14.10
2019,06,30,00,11,14.20
2019,06,30,00,12,14.20
2019,06,30,00,13,14.20
2019,06,30,00,14,14.20
2019,06,30,00,15,14.20
2019,06,30,00,16,14.20
2019,06,30,00,17,14.20
2019,06,30,00,18,14.20
2019,06,30,00,19,14.20
2019,06,30,00,20,14.20
2019,06,30,00,21,14.20
2019,06,30,00,22,14.10
2019,06,30,00,23,14.20
2019,06,30,00,24,14.20
2019,06,30,00,25,14.20
2019,06,30,00,26,14.20
2019,06,30,00,27,14.20
2019,06,30,00,28,14.20
2019,06,30,00,29,14.10
2019,06,30,00,30,14.10
2019,06,30,00,31,14.10
2019,06,30,00,32,14.10
2019,06,30,00,33,14.00
2019,06,30,00,34,14.00
2019,06,30,00,35,14.00
2019,06,30,00,36,13.90
2019,06,30,00,37,13.90
2019,06,30,00,38,13.90
2019,06,30,00,39,13.90
2019,06,30,00,40,13.90
2019,06,30,00,41,13.90
2019,06,30,00,42,13.80
2019,06,30,00,43,13.80
2019,06,30,00,44,13.80
2019,06,30,00,45,13.80
2019,06,30,00,46,13.80
2019,06,30,00,47,13.70
2019,06,30,00,48,13.70
2019,06,30,00,49,13.60
2019,06,30,00,50,13.60
2019,06,30,00,51,13.60
2019,06,30,00,52,13.50
2019,06,30,00,53,13.50
2019,06,30,00,54,13.40
2019,06,30,00,55,13.40
2019,06,30,00,56,13.40
2019,06,30,00,57,13.40
2019,06,30,00,58,13.30
2019,06,30,00,59,13.30
2019,06,30,01,00,13.30
2019,06,30,01,01,13.30
2019,06,30,01,02,13.30
2019,06,30,01,03,13.30
2019,06,30,01,04,13.30
2019,06,30,01,05,13.30
2019,06,30,01,06,13.30
2019,06,30,01,07,13.30
2019,06,30,01,08,13.30
2019,06,30,01,09,13.30
2019,06,30,01,10,13.30
2019,06,30,01,11,13.30
2019,06,30,01,12,13.30
2019,06,30,01,13,13.30
2019,06,30,01,14,13.30
2019,06,30,01,15,13.30
2019,06,30,01,16,13.30
2019,06,30,01,17,13.30
2019,06,30,01,18,13.20
2019,06,30,01,19,13.20
2019,06,30,01,20,13.20
2019,06,30,01,21,13.20
2019,06,30,01,22,13.20
2019,06,30,01,23,13.20
2019,06,30,01,24,13.20
2019,06,30,01,25,13.10
2019,06,30,01,26,13.10
2019,06,30,01,27,13.10
2019,06,30,01,28,13.10
2019,06,30,01,29,13.10
2019,06,30,01,30,13.00
2019,06,30,01,31,13.00
2019,06,30,01,32,13.00
2019,06,30,01,33,13.00
2019,06,30,01,34,13.00
2019,06,30,01,35,13.00
2019,06,30,01,36,13.00
2019,06,30,01,37,12.90
2019,06,30,01,38,12.90
2019,06,30,01,39,12.90
2019,06,30,01,40,12.90
2019,06,30,01,41,12.90
2019,06,30,01,42,12.90
2019,06,30,01,43,12.90
2019,06,30,01,44,12.90
2019,06,30,01,45,12.90
2019,06,30,01,46,12.90
2019,06,30,01,47,12.90
2019,06,30,01,48,12.80
2019,06,30,01,49,12.80
2019,06,30,01,50,12.80
2019,06,30,01,51,12.80
2019,06,30,01,52,12.80
2019,06,30,01,53,12.80
2019,06,30,01,54,12.80
2019,06,30,01,55,12.80
2019,06,30,01,56,12.80
2019,06,30,01,57,12.70
2019,06,30,01,58,12.70
2019,06,30,01,59,12.70
2019,06,30,02,00,12.70
2019,06,30,02,01,12.70
2019,06,30,02,02,12.70
2019,06,30,02,03,12.70
2019,06,30,02,04,12.70
2019,06,30,02,05,12.70
2019,06,30,02,06,12.70
2019,06,30,02,07,12.70
2019,06,30,02,08,12.70
2019,06,30,02,09,12.70
2019,06,30,02,10,12.60
2019,06,30,02,11,12.60
2019,06,30,02,12,12.60
2019,06,30,02,13,12.60
2019,06,30,02,14,12.50
2019,06,30,02,15,12.50
2019,06,30,02,16,12.50
2019,06,30,02,17,12.40
2019,06,30,02,18,12.40
2019,06,30,02,19,12.40
2019,06,30,02,20,12.40
2019,06,30,02,21,12.40
2019,06,30,02,22,12.30
2019,06,30,02,23,12.30
2019,06,30,02,24,12.30
2019,06,30,02,25,12.30
2019,06,30,02,26,12.30
2019,06,30,02,27,12.30
2019,06,30,02,28,12.30
2019,06,30,02,29,12.30
2019,06,30,02,30,12.20
2019,06,30,02,31,12.20
2019,06,30,02,32,12.20
2019,06,30,02,33,12.20
2019,06,30,02,34,12.20
2019,06,30,02,35,12.20
2019,06,30,02,36,12.20
2019,06,30,02,37,12.20
2019,06,30,02,38,12.20
2019,06,30,02,39,12.20
2019,06,30,02,40,12.30
2019,06,30,02,41,12.30
2019,06,30,02,42,12.30
2019,06,30,02,43,12.30
2019,06,30,02,44,12.30
2019,06,30,02,45,12.30
2019,06,30,02,46,12.30
2019,06,30,02,47,12.30
2019,06,30,02,48,12.30
2019,06,30,02,49,12.30
2019,06,30,02,50,12.30
2019,06,30,02,51,12.30
2019,06,30,02,52,12.30
2019,06,30,02,53,12.30
2019,06,30,02,54,12.30
2019,06,30,02,55,12.20
2019,06,30,02,56,12.20
2019,06,30,02,57,12.20
2019,06,30,02,58,12.20
2019,06,30,02,59,12.20
2019,06,30,03,00,12.20
2019,06,30,03,01,12.10
2019,06,30,03,02,12.10
2019,06,30,03,03,12.10
2019,06,30,03,04,12.10
2019,06,30,03,05,12.10
2019,06,30,03,06,12.10
2019,06,30,03,07,12.10
2019,06,30,03,08,12.10
2019,06,30,03,09,12.00
2019,06,30,03,10,12.00
2019,06,30,03,11,12.00
2019,06,30,03,12,11.90
2019,06,30,03,13,11.90
2019,06,30,03,14,11.90
2019,06,30,03,15,11.90
2019,06,30,03,16,11.90
2019,06,30,03,17,11.90
2019,06,30,03,18,11.80
2019,06,30,03,19,11.80
2019,06,30,03,20,11.80
2019,06,30,03,21,11.80
2019,06,30,03,22,11.80
2019,06,30,03,23,11.80
2019,06,30,03,24,11.80
2019,06,30,03,25,11.80
2019,06,30,03,26,11.80
2019,06,30,03,27,11.80
2019,06,30,03,28,11.80
2019,06,30,03,29,11.80
2019,06,30,03,30,11.80
2019,06,30,03,31,11.80
2019,06,30,03,32,11.80
2019,06,30,03,33,11.80
2019,06,30,03,34,11.80
2019,06,30,03,35,11.80
2019,06,30,03,36,11.80
2019,06,30,03,37,11.80
2019,06,30,03,38,11.80
2019,06,30,03,39,11.80
2019,06,30,03,40,11.80
2019,06,30,03,41,11.80
2019,06,30,03,42,11.80
2019,06,30,03,43,11.80
2019,06,30,03,44,11.80
2019,06,30,03,45,11.80
2019,06,30,03,46,11.80
2019,06,30,03,47,11.80
2019,06,30,03,48,11.80
2019,06,30,03,49,11.80
2019,06,30,03,50,11.80
2019,06,30,03,51,11.70
2019,06,30,03,52,11.70
2019,06,30,03,53,11.70
2019,06,30,03,54,11.70
2019,06,30,03,55,11.70
2019,06,30,03,56,11.70
2019,06,30,03,57,11.70
2019,06,30,03,58,11.70
2019,06,30,03,59,11.70
2019,06,30,04,00,11.70
2019,06,30,04,01,11.60
2019,06,30,04,02,11.60
2019,06,30,04,03,11.60
2019,06,30,04,04,11.60
2019,06,30,04,05,11.60
2019,06,30,04,06,11.50
2019,06,30,04,07,11.50
2019,06,30,04,08,11.50
2019,06,30,04,09,11.50
2019,06,30,04,10,11.50
2019,06,30,04,11,11.50
2019,06,30,04,12,11.50
2019,06,30,04,13,11.50
2019,06,30,04,14,11.50
2019,06,30,04,15,11.50
2019,06,30,04,16,11.50
2019,06,30,04,17,11.40
2019,06,30,04,18,11.40
2019,06,30,04,19,11.50
2019,06,30,04,20,11.50
2019,06,30,04,21,11.50
2019,06,30,04,22,11.50
2019,06,30,04,23,11.50
2019,06,30,04,24,11.40
2019,06,30,04,25,11.40
2019,06,30,04,26,11.40
2019,06,30,04,27,11.40
2019,06,30,04,28,11.40
2019,06,30,04,29,11.40
2019,06,30,04,30,11.40
2019,06,30,04,31,11.30
2019,06,30,04,32,11.30
2019,06,30,04,33,11.30
2019,06,30,04,34,11.30
2019,06,30,04,35,11.30
2019,06,30,04,36,11.30
2019,06,30,04,37,11.30
2019,06,30,04,38,11.30
2019,06,30,04,39,11.30
2019,06,30,04,40,11.30
2019,06,30,04,41,11.30
2019,06,30,04,42,11.30
2019,06,30,04,43,11.30
2019,06,30,04,44,11.30
2019,06,30,04,45,11.20
2019,06,30,04,46,11.30
2019,06,30,04,47,11.30
2019,06,30,04,48,11.30
2019,06,30,04,49,11.30
2019,06,30,04,50,11.30
2019,06,30,04,51,11.30
2019,06,30,04,52,11.30
2019,06,30,04,53,11.20
2019,06,30,04,54,11.20
2019,06,30,04,55,11.20
2019,06,30,04,56,11.20
2019,06,30,04,57,11.10
2019,06,30,04,58,11.10
2019,06,30,04,59,11.10
2019,06,30,05,00,11.10
2019,06,30,05,01,11.10
2019,06,30,05,02,11.10
2019,06,30,05,03,11.10
2019,06,30,05,04,11.10
2019,06,30,05,05,11.10
2019,06,30,05,06,11.10
2019,06,30,05,07,11.10
2019,06,30,05,08,11.10
2019,06,30,05,09,11.10
2019,06,30,05,10,11.10
2019,06,30,05,11,11.10
2019,06,30,05,12,11.10
2019,06,30,05,13,11.10
2019,06,30,05,14,11.10
2019,06,30,05,15,11.10
2019,06,30,05,16,11.10
2019,06,30,05,17,11.10
2019,06,30,05,18,11.10
2019,06,30,05,19,11.10
2019,06,30,05,20,11.10
2019,06,30,05,21,11.10
2019,06,30,05,22,11.00
2019,06,30,05,23,11.00
2019,06,30,05,24,11.00
2019,06,30,05,25,11.00
2019,06,30,05,26,10.90
2019,06,30,05,27,10.90
2019,06,30,05,28,10.90
2019,06,30,05,29,10.90
2019,06,30,05,30,10.90
2019,06,30,05,31,10.90
2019,06,30,05,32,10.90
2019,06,30,05,33,10.90
2019,06,30,05,34,10.90
2019,06,30,05,35,10.90
2019,06,30,05,36,10.90
2019,06,30,05,37,10.90
2019,06,30,05,38,10.90
2019,06,30,05,39,10.90
2019,06,30,05,40,10.90
2019,06,30,05,41,10.90
2019,06,30,05,42,10.90
2019,06,30,05,43,10.90
2019,06,30,05,44,10.90
2019,06,30,05,45,10.90
2019,06,30,05,46,10.90
2019,06,30,05,47,10.90
2019,06,30,05,48,10.90
2019,06,30,05,49,10.90
2019,06,30,05,50,10.90
2019,06,30,05,51,10.90
2019,06,30,05,52,10.90
2019,06,30,05,53,10.90
2019,06,30,05,54,10.80
2019,06,30,05,55,10.80
2019,06,30,05,56,10.80
2019,06,30,05,57,10.80
2019,06,30,05,58,10.80
2019,06,30,05,59,10.80
2019,06,30,06,00,10.80
2019,06,30,06,01,10.80
2019,06,30,06,02,10.80
2019,06,30,06,03,10.80
2019,06,30,06,04,10.80
2019,06,30,06,05,10.80
2019,06,30,06,06,10.80
2019,06,30,06,07,10.80
2019,06,30,06,08,10.80
2019,06,30,06,09,10.90
2019,06,30,06,10,10.90
2019,06,30,06,11,10.90
2019,06,30,06,12,10.90
2019,06,30,06,13,10.90
2019,06,30,06,14,11.00
2019,06,30,06,15,11.00
2019,06,30,06,16,11.00
2019,06,30,06,17,11.10
2019,06,30,06,18,11.10
2019,06,30,06,19,11.10
2019,06,30,06,20,11.10
2019,06,30,06,21,11.20
2019,06,30,06,22,11.20
2019,06,30,06,23,11.20
2019,06,30,06,24,11.20
2019,06,30,06,25,11.20
2019,06,30,06,26,11.20
2019,06,30,06,27,11.30
2019,06,30,06,28,11.30
2019,06,30,06,29,11.30
2019,06,30,06,30,11.30
2019,06,30,06,31,11.30
2019,06,30,06,32,11.30
2019,06,30,06,33,11.30
2019,06,30,06,34,11.30
2019,06,30,06,35,11.30
2019,06,30,06,36,11.40
2019,06,30,06,37,11.40
2019,06,30,06,38,11.40
2019,06,30,06,39,11.50
2019,06,30,06,40,11.50
2019,06,30,06,41,11.60
2019,06,30,06,42,11.60
2019,06,30,06,43,11.60
2019,06,30,06,44,11.70
2019,06,30,06,45,11.70
2019,06,30,06,46,11.80
2019,06,30,06,47,11.80
2019,06,30,06,48,11.90
2019,06,30,06,49,11.90
2019,06,30,06,50,11.90
2019,06,30,06,51,12.00
2019,06,30,06,52,12.10
2019,06,30,06,53,12.10
2019,06,30,06,54,12.20
2019,06,30,06,55,12.20
2019,06,30,06,56,12.20
2019,06,30,06,57,12.30
2019,06,30,06,58,12.30
2019,06,30,06,59,12.30
2019,06,30,07,00,12.40
2019,06,30,07,01,12.40
2019,06,30,07,02,12.40
2019,06,30,07,03,12.50
2019,06,30,07,04,12.50
2019,06,30,07,05,12.60
2019,06,30,07,06,12.60
2019,06,30,07,07,12.70
2019,06,30,07,08,12.70
2019,06,30,07,09,12.80
2019,06,30,07,10,12.80
2019,06,30,07,11,12.90
2019,06,30,07,12,12.90
2019,06,30,07,13,12.90
2019,06,30,07,14,13.00
2019,06,30,07,15,13.00
2019,06,30,07,16,13.10
2019,06,30,07,17,13.20
2019,06,30,07,18,13.20
2019,06,30,07,19,13.20
2019,06,30,07,20,13.30
2019,06,30,07,21,13.30
2019,06,30,07,22,13.30
2019,06,30,07,23,13.40
2019,06,30,07,24,13.40
2019,06,30,07,25,13.50
2019,06,30,07,26,13.50
2019,06,30,07,27,13.60
2019,06,30,07,28,13.60
2019,06,30,07,29,13.70
2019,06,30,07,30,13.70
2019,06,30,07,31,13.80
2019,06,30,07,32,13.90
2019,06,30,07,33,14.00
2019,06,30,07,34,14.10
2019,06,30,07,35,14.10
2019,06,30,07,36,14.20
2019,06,30,07,37,14.30
2019,06,30,07,38,14.30
2019,06,30,07,39,14.40
2019,06,30,07,40,14.40
2019,06,30,07,41,14.50
2019,06,30,07,42,14.50
2019,06,30,07,43,14.60
2019,06,30,07,44,14.60
2019,06,30,07,45,14.70
2019,06,30,07,46,14.80
2019,06,30,07,47,14.80
2019,06,30,07,48,14.80
2019,06,30,07,49,14.90
2019,06,30,07,50,15.00
2019,06,30,07,51,15.00
2019,06,30,07,52,15.10
2019,06,30,07,53,15.10
2019,06,30,07,54,15.20
2019,06,30,07,55,15.30
2019,06,30,07,56,15.30
2019,06,30,07,57,15.40
2019,06,30,07,58,15.40
2019,06,30,07,59,15.50
2019,06,30,08,00,15.50
2019,06,30,08,01,15.60
2019,06,30,08,02,15.70
2019,06,30,08,03,15.70
2019,06,30,08,04,15.80
2019,06,30,08,05,15.90
2019,06,30,08,06,16.00
2019,06,30,08,07,16.10
2019,06,30,08,08,16.10
2019,06,30,08,09,16.20
2019,06,30,08,10,16.30
2019,06,30,08,11,16.40
2019,06,30,08,12,16.50
2019,06,30,08,13,16.60
2019,06,30,08,14,16.70
2019,06,30,08,15,16.80
2019,06,30,08,16,16.90
2019,06,30,08,17,16.90
2019,06,30,08,18,17.00
2019,06,30,08,19,17.10
2019,06,30,08,20,17.20
2019,06,30,08,21,17.30
2019,06,30,08,22,17.30
2019,06,30,08,23,17.40
2019,06,30,08,24,17.50
2019,06,30,08,25,17.60
2019,06,30,08,26,17.70
2019,06,30,08,27,17.80
2019,06,30,08,28,17.90
2019,06,30,08,29,18.10
2019,06,30,08,30,18.20
2019,06,30,08,31,18.30
2019,06,30,08,32,18.40
2019,06,30,08,33,18.50
2019,06,30,08,34,18.50
2019,06,30,08,35,18.60
2019,06,30,08,36,18.70
2019,06,30,08,37,18.80
2019,06,30,08,38,18.80
2019,06,30,08,39,18.80
2019,06,30,08,40,18.90
2019,06,30,08,41,19.00
2019,06,30,08,42,19.00
2019,06,30,08,43,19.10
2019,06,30,08,44,19.20
2019,06,30,08,45,19.20
2019,06,30,08,46,19.20
2019,06,30,08,47,19.20
2019,06,30,08,48,19.20
2019,06,30,08,49,19.30
2019,06,30,08,50,19.40
2019,06,30,08,51,19.40
2019,06,30,08,52,19.50
2019,06,30,08,53,19.60
2019,06,30,08,54,19.70
2019,06,30,08,55,19.70
2019,06,30,08,56,19.80
2019,06,30,08,57,19.80
2019,06,30,08,58,19.80
2019,06,30,08,59,19.80
2019,06,30,09,00,19.80
2019,06,30,09,01,19.80
2019,06,30,09,02,19.80
2019,06,30,09,03,19.80
2019,06,30,09,04,19.80
2019,06,30,09,05,19.90
2019,06,30,09,06,19.90
2019,06,30,09,07,19.90
2019,06,30,09,08,19.90
2019,06,30,09,09,19.90
2019,06,30,09,10,19.90
2019,06,30,09,11,19.90
2019,06,30,09,12,19.90
2019,06,30,09,13,19.90
2019,06,30,09,14,19.90
2019,06,30,09,15,19.90
2019,06,30,09,16,19.90
2019,06,30,09,17,19.90
2019,06,30,09,18,19.80
2019,06,30,09,19,19.80
2019,06,30,09,20,19.80
2019,06,30,09,21,19.80
2019,06,30,09,22,19.70
2019,06,30,09,23,19.60
2019,06,30,09,24,19.60
2019,06,30,09,25,19.50
2019,06,30,09,26,19.50
2019,06,30,09,27,19.40
2019,06,30,09,28,19.40
2019,06,30,09,29,19.40
2019,06,30,09,30,19.40
2019,06,30,09,31,19.40
2019,06,30,09,32,19.40
2019,06,30,09,33,19.40
2019,06,30,09,34,19.40
2019,06,30,09,35,19.40
2019,06,30,09,36,19.50
2019,06,30,09,37,19.50
2019,06,30,09,38,19.50
2019,06,30,09,39,19.50
2019,06,30,09,40,19.60
2019,06,30,09,41,19.60
2019,06,30,09,42,19.60
2019,06,30,09,43,19.60
2019,06,30,09,44,19.60
2019,06,30,09,45,19.60
2019,06,30,09,46,19.60
2019,06,30,09,47,19.60
2019,06,30,09,48,19.60
2019,06,30,09,49,19.50
2019,06,30,09,50,19.50
2019,06,30,09,51,19.50
2019,06,30,09,52,19.50
2019,06,30,09,53,19.60
2019,06,30,09,54,19.60
2019,06,30,09,55,19.70
2019,06,30,09,56,19.70
2019,06,30,09,57,19.70
2019,06,30,09,58,19.70
2019,06,30,09,59,19.80
2019,06,30,10,00,19.80
2019,06,30,10,01,19.80
2019,06,30,10,02,19.80
2019,06,30,10,03,19.80
2019,06,30,10,04,19.80
2019,06,30,10,05,19.90
2019,06,30,10,06,19.90
2019,06,30,10,07,19.90
2019,06,30,10,08,19.90
2019,06,30,10,09,19.90
2019,06,30,10,10,19.90
2019,06,30,10,11,20.00
2019,06,30,10,12,20.00
2019,06,30,10,13,20.10
2019,06,30,10,14,20.10
2019,06,30,10,15,20.10
2019,06,30,10,16,20.10
2019,06,30,10,17,20.10
2019,06,30,10,18,20.10
2019,06,30,10,19,20.10
2019,06,30,10,20,20.10
2019,06,30,10,21,20.10
2019,06,30,10,22,20.10
2019,06,30,10,23,20.10
2019,06,30,10,24,20.10
2019,06,30,10,25,20.20
2019,06,30,10,26,20.20
2019,06,30,10,27,20.20
2019,06,30,10,28,20.30
2019,06,30,10,29,20.30
2019,06,30,10,30,20.30
2019,06,30,10,31,20.40
2019,06,30,10,32,20.50
2019,06,30,10,33,20.60
2019,06,30,10,34,20.70
2019,06,30,10,35,20.70
2019,06,30,10,36,20.80
2019,06,30,10,37,20.80
2019,06,30,10,38,20.80
2019,06,30,10,39,20.90
2019,06,30,10,40,21.00
2019,06,30,10,41,21.00
2019,06,30,10,42,21.10
2019,06,30,10,43,21.10
2019,06,30,10,44,21.10
2019,06,30,10,45,21.10
2019,06,30,10,46,21.20
2019,06,30,10,47,21.20
2019,06,30,10,48,21.20
2019,06,30,10,49,21.20
2019,06,30,10,50,21.30
2019,06,30,10,51,21.30
2019,06,30,10,52,21.20
2019,06,30,10,53,21.20
2019,06,30,10,54,21.20
2019,06,30,10,55,21.30
2019,06,30,10,56,21.30
2019,06,30,10,57,21.30
2019,06,30,10,58,21.40
2019,06,30,10,59,21.30
2019,06,30,11,00,21.30
2019,06,30,11,01,21.30
2019,06,30,11,02,21.30
2019,06,30,11,03,21.30
2019,06,30,11,04,21.30
2019,06,30,11,05,21.30
2019,06,30,11,06,21.30
2019,06,30,11,07,21.40
2019,06,30,11,08,21.40
2019,06,30,11,09,21.50
2019,06,30,11,10,21.60
2019,06,30,11,11,21.70
2019,06,30,11,12,21.70
2019,06,30,11,13,21.70
2019,06,30,11,14,21.70
2019,06,30,11,15,21.60
2019,06,30,11,16,21.60
2019,06,30,11,17,21.50
2019,06,30,11,18,21.50
2019,06,30,11,19,21.60
2019,06,30,11,20,21.60
2019,06,30,11,21,21.60
2019,06,30,11,22,21.70
2019,06,30,11,23,21.80
2019,06,30,11,24,21.80
2019,06,30,11,25,21.80
2019,06,30,11,26,21.80
2019,06,30,11,27,21.80
2019,06,30,11,28,21.80
2019,06,30,11,29,21.80
2019,06,30,11,30,21.80
2019,06,30,11,31,21.80
2019,06,30,11,32,21.90
2019,06,30,11,33,21.90
2019,06,30,11,34,21.90
2019,06,30,11,35,21.90
2019,06,30,11,36,21.90
2019,06,30,11,37,22.00
2019,06,30,11,38,22.00
2019,06,30,11,39,22.10
2019,06,30,11,40,22.10
2019,06,30,11,41,22.10
2019,06,30,11,42,22.10
2019,06,30,11,43,22.10
2019,06,30,11,44,22.10
2019,06,30,11,45,22.10
2019,06,30,11,46,22.00
2019,06,30,11,47,22.00
2019,06,30,11,48,22.00
2019,06,30,11,49,22.00
2019,06,30,11,50,22.00
2019,06,30,11,51,22.10
2019,06,30,11,52,22.20
2019,06,30,11,53,22.20
2019,06,30,11,54,22.30
2019,06,30,11,55,22.30
2019,06,30,11,56,22.40
2019,06,30,11,57,22.40
2019,06,30,11,58,22.50
2019,06,30,11,59,22.50
2019,06,30,12,00,22.60
2019,06,30,12,01,22.60
2019,06,30,12,02,22.70
2019,06,30,12,03,22.80
2019,06,30,12,04,22.90
2019,06,30,12,05,22.90
2019,06,30,12,06,22.90
2019,06,30,12,07,22.90
2019,06,30,12,08,22.80
2019,06,30,12,09,22.80
2019,06,30,12,10,22.70
2019,06,30,12,11,22.60
2019,06,30,12,12,22.50
2019,06,30,12,13,22.50
2019,06,30,12,14,22.50
2019,06,30,12,15,22.50
2019,06,30,12,16,22.50
2019,06,30,12,17,22.50
2019,06,30,12,18,22.50
2019,06,30,12,19,22.50
2019,06,30,12,20,22.60
2019,06,30,12,21,22.80
2019,06,30,12,22,23.00
2019,06,30,12,23,23.10
2019,06,30,12,24,23.20
2019,06,30,12,25,23.40
2019,06,30,12,26,23.60
2019,06,30,12,27,23.70
2019,06,30,12,28,23.80
2019,06,30,12,29,23.90
2019,06,30,12,30,23.90
2019,06,30,12,31,23.80
2019,06,30,12,32,23.80
2019,06,30,12,33,23.80
2019,06,30,12,34,23.80
2019,06,30,12,35,23.80
2019,06,30,12,36,23.80
2019,06,30,12,37,23.80
2019,06,30,12,38,23.90
2019,06,30,12,39,23.90
2019,06,30,12,40,24.00
2019,06,30,12,41,24.10
2019,06,30,12,42,24.00
2019,06,30,12,43,23.80
2019,06,30,12,44,23.60
2019,06,30,12,45,23.30
2019,06,30,12,46,23.10
2019,06,30,12,47,22.90
2019,06,30,12,48,22.70
2019,06,30,12,49,22.50
2019,06,30,12,50,22.40
2019,06,30,12,51,22.30
2019,06,30,12,52,22.10
2019,06,30,12,53,21.80
2019,06,30,12,54,21.40
2019,06,30,12,55,21.20
2019,06,30,12,56,21.00
2019,06,30,12,57,21.00
2019,06,30,12,58,20.90
2019,06,30,12,59,20.80
2019,06,30,13,00,20.80
2019,06,30,13,01,20.80
2019,06,30,13,02,20.90
2019,06,30,13,03,21.00
2019,06,30,13,04,21.00
2019,06,30,13,05,21.10
2019,06,30,13,06,21.20
2019,06,30,13,07,21.00
2019,06,30,13,08,20.90
2019,06,30,13,09,20.80
2019,06,30,13,10,20.70
2019,06,30,13,11,20.60
2019,06,30,13,12,20.50
2019,06,30,13,13,20.40
2019,06,30,13,14,20.30
2019,06,30,13,15,20.20
2019,06,30,13,16,20.20
2019,06,30,13,17,20.10
2019,06,30,13,18,20.10
2019,06,30,13,19,20.00
2019,06,30,13,20,20.00
2019,06,30,13,21,19.90
2019,06,30,13,22,19.90
2019,06,30,13,23,19.80
2019,06,30,13,24,19.90
2019,06,30,13,25,19.90
2019,06,30,13,26,19.90
2019,06,30,13,27,19.80
2019,06,30,13,28,19.90
2019,06,30,13,29,20.00
2019,06,30,13,30,20.10
2019,06,30,13,31,20.00
2019,06,30,13,32,19.90
2019,06,30,13,33,19.90
2019,06,30,13,34,19.90
2019,06,30,13,35,19.90
2019,06,30,13,36,19.80
2019,06,30,13,37,19.80
2019,06,30,13,38,19.80
2019,06,30,13,39,19.90
2019,06,30,13,40,19.90
2019,06,30,13,41,19.80
2019,06,30,13,42,19.90
2019,06,30,13,43,20.00
2019,06,30,13,44,20.10
2019,06,30,13,45,20.20
2019,06,30,13,46,20.30
2019,06,30,13,47,20.30
2019,06,30,13,48,20.30
2019,06,30,13,49,20.40
2019,06,30,13,50,20.40
2019,06,30,13,51,20.40
2019,06,30,13,52,20.40
2019,06,30,13,53,20.40
2019,06,30,13,54,20.50
2019,06,30,13,55,20.50
2019,06,30,13,56,20.60
2019,06,30,13,57,20.60
2019,06,30,13,58,20.60
2019,06,30,13,59,20.70
2019,06,30,14,00,20.80
2019,06,30,14,01,20.90
2019,06,30,14,02,21.00
2019,06,30,14,03,21.10
2019,06,30,14,04,21.10
2019,06,30,14,05,21.00
2019,06,30,14,06,21.00
2019,06,30,14,07,21.00
2019,06,30,14,08,21.00
2019,06,30,14,09,21.10
2019,06,30,14,10,21.20
2019,06,30,14,11,21.30
2019,06,30,14,12,21.40
2019,06,30,14,13,21.50
2019,06,30,14,14,21.60
2019,06,30,14,15,21.60
2019,06,30,14,16,21.70
2019,06,30,14,17,21.70
2019,06,30,14,18,21.70
2019,06,30,14,19,21.70
2019,06,30,14,20,21.70
2019,06,30,14,21,21.70
2019,06,30,14,22,21.80
2019,06,30,14,23,21.80
2019,06,30,14,24,21.90
2019,06,30,14,25,22.00
2019,06,30,14,26,22.00
2019,06,30,14,27,22.10
2019,06,30,14,28,22.20
2019,06,30,14,29,22.20
2019,06,30,14,30,22.20
2019,06,30,14,31,22.20
2019,06,30,14,32,22.10
2019,06,30,14,33,22.10
2019,06,30,14,34,22.10
2019,06,30,14,35,22.20
2019,06,30,14,36,22.20
2019,06,30,14,37,22.30
2019,06,30,14,38,22.30
2019,06,30,14,39,22.40
2019,06,30,14,40,22.40
2019,06,30,14,41,22.40
2019,06,30,14,42,22.40
2019,06,30,14,43,22.40
2019,06,30,14,44,22.30
2019,06,30,14,45,22.30
2019,06,30,14,46,22.20
2019,06,30,14,47,22.20
2019,06,30,14,48,22.20
2019,06,30,14,49,22.20
2019,06,30,14,50,22.20
2019,06,30,14,51,22.20
2019,06,30,14,52,22.20
2019,06,30,14,53,22.20
2019,06,30,14,54,22.10
2019,06,30,14,55,22.10
2019,06,30,14,56,22.20
2019,06,30,14,57,22.20
2019,06,30,14,58,22.10
2019,06,30,14,59,22.00
2019,06,30,15,00,21.90
2019,06,30,15,01,21.80
2019,06,30,15,02,21.60
2019,06,30,15,03,21.30
2019,06,30,15,04,21.20
2019,06,30,15,05,21.00
2019,06,30,15,06,20.90
2019,06,30,15,07,20.90
2019,06,30,15,08,20.90
2019,06,30,15,09,20.90
2019,06,30,15,10,20.90
2019,06,30,15,11,20.90
2019,06,30,15,12,21.00
2019,06,30,15,13,21.10
2019,06,30,15,14,21.20
2019,06,30,15,15,21.30
2019,06,30,15,16,21.20
2019,06,30,15,17,21.30
2019,06,30,15,18,21.30
2019,06,30,15,19,21.20
2019,06,30,15,20,21.20
2019,06,30,15,21,21.20
2019,06,30,15,22,21.20
2019,06,30,15,23,21.20
2019,06,30,15,24,21.20
2019,06,30,15,25,21.30
2019,06,30,15,26,21.40
2019,06,30,15,27,21.40
2019,06,30,15,28,21.40
2019,06,30,15,29,21.30
2019,06,30,15,30,21.30
2019,06,30,15,31,21.30
2019,06,30,15,32,21.30
2019,06,30,15,33,21.30
2019,06,30,15,34,21.30
2019,06,30,15,35,21.30
2019,06,30,15,36,21.30
2019,06,30,15,37,21.20
2019,06,30,15,38,21.30
2019,06,30,15,39,21.30
2019,06,30,15,40,21.30
2019,06,30,15,41,21.40
2019,06,30,15,42,21.40
2019,06,30,15,43,21.40
2019,06,30,15,44,21.50
2019,06,30,15,45,21.50
2019,06,30,15,46,21.50
2019,06,30,15,47,21.40
2019,06,30,15,48,21.40
2019,06,30,15,49,21.30
2019,06,30,15,50,21.30
2019,06,30,15,51,21.30
2019,06,30,15,52,21.30
2019,06,30,15,53,21.30
2019,06,30,15,54,21.30
2019,06,30,15,55,21.40
2019,06,30,15,56,21.40
2019,06,30,15,57,21.40
2019,06,30,15,58,21.50
2019,06,30,15,59,21.60
2019,06,30,16,00,21.60
2019,06,30,16,01,21.60
2019,06,30,16,02,21.60
2019,06,30,16,03,21.60
2019,06,30,16,04,21.60
2019,06,30,16,05,21.60
2019,06,30,16,06,21.60
2019,06,30,16,07,21.60
2019,06,30,16,08,21.50
2019,06,30,16,09,21.50
2019,06,30,16,10,21.50
2019,06,30,16,11,21.50
2019,06,30,16,12,21.40
2019,06,30,16,13,21.40
2019,06,30,16,14,21.30
2019,06,30,16,15,21.30
2019,06,30,16,16,21.30
2019,06,30,16,17,21.30
2019,06,30,16,18,21.30
2019,06,30,16,19,21.40
2019,06,30,16,20,21.40
2019,06,30,16,21,21.40
2019,06,30,16,22,21.50
2019,06,30,16,23,21.50
2019,06,30,16,24,21.60
2019,06,30,16,25,21.60
2019,06,30,16,26,21.60
2019,06,30,16,27,21.50
2019,06,30,16,28,21.50
2019,06,30,16,29,21.50
2019,06,30,16,30,21.60
2019,06,30,16,31,21.60
2019,06,30,16,32,21.60
2019,06,30,16,33,21.70
2019,06,30,16,34,21.70
2019,06,30,16,35,21.80
2019,06,30,16,36,21.80
2019,06,30,16,37,21.80
2019,06,30,16,38,21.90
2019,06,30,16,39,21.90
2019,06,30,16,40,21.90
2019,06,30,16,41,22.00
2019,06,30,16,42,22.00
2019,06,30,16,43,22.00
2019,06,30,16,44,22.10
2019,06,30,16,45,22.10
2019,06,30,16,46,22.10
2019,06,30,16,47,22.10
2019,06,30,16,48,22.10
2019,06,30,16,49,22.10
2019,06,30,16,50,22.00
2019,06,30,16,51,21.90
2019,06,30,16,52,21.90
2019,06,30,16,53,21.80
2019,06,30,16,54,21.70
2019,06,30,16,55,21.60
2019,06,30,16,56,21.60
2019,06,30,16,57,21.50
2019,06,30,16,58,21.40
2019,06,30,16,59,21.30
2019,06,30,17,00,21.30
2019,06,30,17,01,21.40
2019,06,30,17,02,21.40
2019,06,30,17,03,21.40
2019,06,30,17,04,21.50
2019,06,30,17,05,21.50
2019,06,30,17,06,21.60
2019,06,30,17,07,21.60
2019,06,30,17,08,21.70
2019,06,30,17,09,21.80
2019,06,30,17,10,21.80
2019,06,30,17,11,21.80
2019,06,30,17,12,21.80
2019,06,30,17,13,21.80
2019,06,30,17,14,21.80
2019,06,30,17,15,21.80
2019,06,30,17,16,21.80
2019,06,30,17,17,21.80
2019,06,30,17,18,21.80
2019,06,30,17,19,21.70